Tracking 17884 objects as of 7-December-2016
HD Live streaming from Space Station
objects crossing your sky now

COSMOS 2251 DEB

Track COSMOS 2251 DEB now!
10-day predictions


NORAD ID: 34544
Int'l Code: 1993-036UE
Perigee: 780.4 km
Apogee: 1,369.6 km
Inclination: 73.9 °
Period: 106.6 minutes
Semi major axis: 7446 km
RCS: 0.0085 m2 (small)
Launch date: June 16, 1993
Source: Commonwealth of Independent States (former USSR) (CIS)
Launch site: PLESETSK MISSILE AND SPACE COMPLEX (PKMTR)

Note: This is SATELLITE DEBRIS
Your satellite tracking list
Your tracking list is empty





NASA's NSSDC Master Catalog

Two Line Element Set (TLE):
1 34544U 93036UE  16342.06580126  .00000276  00000-0  28089-3 0  9990
2 34544  73.9177 111.6143 0395640  27.7176  87.9308 13.51189534384437
Source of the keplerian elements: AFSPC